Wind_Speed
16 16 16 16 16 16 16 17 16 15 13 13 12 11 11 10 10 9 9 10 11 10 13 18 17 16 12 10 13 19 27 23 18 21 20 7 15 18 9 16 22 24 24 23 25
21 22 22 22 22 21 22 22 22 21 20 18 17 16 16 15 13 12 13 10 10 12 12 15 18 16 18 16 11 21 19 12 9 13 20 18 17 15 19 20 18 23 24 27 25
28 27 27 27 27 27 27 27 27 27 26 24 22 22 20 20 15 18 15 14 13 12 13 14 18 19 19 16 7 12 4 8 1 15 19 15 14 18 18 20 14 21 23 24 23
32 33 33 33 33 33 32 32 32 32 32 32 29 26 26 24 21 20 18 17 16 16 13 16 17 22 22 20 14 5 7 8 9 14 14 11 20 19 21 17 15 17 20 21 22
29 30 31 33 35 37 38 38 39 38 38 38 36 35 31 29 27 24 22 20 20 19 17 16 17 19 24 28 16 17 19 15 17 19 8 15 11 12 20 25 16 16 20 21 20
24 26 27 28 30 32 35 37 39 42 46 45 43 42 40 35 33 26 29 24 22 21 21 19 18 20 22 23 14 21 27 23 24 15 14 10 20 15 25 30 8 16 23 25 22
16 18 20 19 20 21 24 28 33 40 44 47 50 51 48 38 42 32 33 30 25 23 23 22 22 24 20 20 18 17 17 10 10 7 5 4 20 15 20 27 18 7 13 20 24
21 23 25 26 28 31 33 36 35 33 38 45 51 54 56 45 50 44 36 32 32 27 26 27 26 23 22 19 20 18 13 11 8 5 9 20 22 16 17 21 24 7 16 16 26
22 23 24 25 27 31 36 39 39 38 39 41 47 54 55 48 54 44 46 42 31 32 29 29 29 25 25 23 22 16 9 11 9 6 13 21 24 14 17 29 19 20 18 20 25
24 26 28 29 30 32 35 40 42 45 45 47 49 52 51 46 44 42 44 43 43 34 32 29 29 28 28 26 21 17 15 16 8 7 20 17 13 11 20 24 18 22 29 30 25
26 29 31 33 34 37 36 42 45 44 46 49 52 54 51 50 45 51 45 42 43 45 35 25 31 31 26 24 21 19 21 19 16 15 16 15 13 22 25 28 8 24 29 29 31
28 32 34 36 38 42 44 48 45 46 47 51 51 55 48 47 49 53 50 43 41 43 37 32 34 25 24 25 23 13 11 20 24 25 28 29 29 29 28 24 14 18 29 33 29
33 35 37 40 42 44 49 49 49 53 56 49 43 43 42 48 47 48 48 48 40 37 39 39 30 24 24 26 23 17 22 20 25 31 33 29 36 38 22 11 20 18 20 24 28
37 38 39 41 45 47 51 52 53 54 58 43 29 31 36 41 50 45 48 34 37 41 38 40 30 27 27 26 15 17 13 16 24 22 23 24 30 23 14 8 18 9 18 27 32
37 39 42 42 47 49 52 52 51 47 43 22 4 4 11 29 31 46 42 41 37 38 31 35 26 23 19 20 19 23 27 22 28 22 25 26 27 22 15 13 17 28 22 22 28
36 40 43 45 48 51 52 51 45 31 17 6 10 4 11 14 25 34 41 44 41 38 32 30 26 22 21 21 18 23 30 25 31 28 32 19 21 12 19 18 19 31 27 24 33
39 42 43 48 46 49 50 45 30 13 7 7 19 12 5 13 7 27 35 39 29 43 41 33 31 29 25 24 21 25 25 30 31 30 24 3 8 4 7 15 23 26 34 38 40
40 42 44 47 47 48 46 34 14 8 7 17 17 9 13 13 13 14 20 27 34 34 25 34 37 32 31 29 26 21 27 35 30 22 12 4 17 12 15 17 24 28 32 34 27
42 41 43 45 45 43 39 20 9 10 14 23 27 13 15 9 26 13 21 30 24 38 41 30 27 24 22 31 31 28 34 24 23 18 20 18 12 15 16 22 33 21 24 24 27
41 41 42 39 41 38 28 14 10 10 15 25 26 23 19 12 17 22 21 28 24 27 38 43 40 29 28 30 28 29 23 27 26 27 27 22 14 19 18 27 29 25 22 26 23
39 39 40 36 36 32 20 15 13 16 21 27 29 25 21 19 17 19 17 22 31 34 34 45 40 32 32 34 30 31 33 26 26 23 17 13 12 22 21 27 30 29 24 27 19
37 35 36 34 31 25 19 15 14 18 29 32 27 28 25 25 23 21 14 24 33 30 34 34 36 38 27 34 27 27 35 32 24 31 32 28 23 23 15 23 29 35 34 29 17
33 33 31 30 27 22 19 16 14 20 28 36 34 33 32 32 31 25 29 19 26 31 31 29 30 33 34 28 28 32 36 30 26 17 34 32 28 27 20 30 39 44 34 34 15
30 32 27 28 26 22 19 14 14 16 21 26 29 31 27 35 40 30 30 19 17 26 15 22 31 34 37 31 27 29 31 27 31 26 25 30 34 35 37 32 40 40 21 18 23
28 26 25 25 20 16 16 14 16 13 18 21 26 25 28 33 39 41 24 29 6 5 20 17 35 35 34 38 26 27 27 32 30 31 29 31 27 33 38 41 40 33 32 18 15
22 24 24 23 17 16 18 17 16 19 20 17 18 14 27 32 35 42 39 27 7 5 11 35 35 36 35 33 29 23 22 29 40 32 37 37 36 40 42 41 49 35 23 19 20
22 23 25 22 19 19 15 13 11 15 17 18 22 18 15 26 37 37 42 43 34 23 11 34 40 35 34 33 32 25 25 23 27 42 41 40 36 44 43 41 42 38 33 32 23
Wind_Direction
274 270 268 268 266 263 263 263 260 261 250 246 248 253 255 251 235 242 234 218 218 202 169 156 154 154 139 148 92 93 60 49 29 3 315 340 314 11 1 3 27 43 33 29 38
265 268 271 270 270 269 270 268 264 262 259 255 253 252 251 250 248 238 237 234 232 215 202 178 171 162 155 145 124 82 69 60 46 303 297 329 341 336 349 357 12 29 30 26 29
270 268 267 266 266 267 267 268 271 269 265 261 254 252 251 252 246 251 239 232 239 233 220 203 182 178 169 179 157 43 24 110 91 309 314 296 324 325 329 329 7 13 19 16 18
276 276 276 274 272 271 270 268 265 265 268 268 264 255 253 249 248 256 256 249 242 243 233 226 206 188 187 191 170 229 246 302 183 296 303 321 319 326 319 332 11 5 2 15 11
281 280 278 277 277 278 277 276 276 272 268 265 264 262 251 251 253 248 243 250 248 245 240 237 231 210 196 199 196 174 193 212 226 245 215 295 325 288 299 297 340 8 355 1 0
284 284 284 284 283 279 276 272 271 272 274 272 268 263 259 255 251 252 252 242 245 248 243 239 238 236 222 226 242 199 196 216 221 229 197 239 294 315 277 291 328 11 354 349 350
305 305 306 301 295 293 294 290 283 276 271 270 271 270 264 264 258 246 252 251 246 243 246 237 235 241 243 237 244 224 220 205 166 156 1 288 259 286 297 318 291 328 357 350 1
310 309 302 301 300 297 302 303 296 282 276 272 269 266 267 264 263 259 255 249 251 246 241 241 237 237 244 242 242 245 244 179 156 72 306 243 259 286 294 293 298 258 356 344 342
300 298 297 300 298 294 293 294 294 289 284 276 270 268 266 258 264 268 263 261 247 247 241 238 239 233 233 237 234 245 220 180 106 53 253 287 318 296 288 281 295 326 301 337 339
297 297 291 294 297 300 299 299 291 286 285 283 278 273 272 263 253 253 256 256 258 245 242 241 240 237 233 234 231 232 202 149 141 88 285 280 292 279 273 299 312 329 318 321 325
296 296 294 295 295 297 297 300 297 290 289 285 280 272 266 255 244 244 242 249 254 256 244 250 242 236 236 238 240 227 225 206 203 199 231 246 251 244 259 283 329 303 302 300 307
302 300 300 299 300 300 303 306 304 295 289 288 279 273 261 251 249 251 242 237 242 251 258 245 247 247 243 234 236 213 244 219 210 209 227 233 242 239 247 264 224 253 268 276 292
302 306 306 304 305 306 309 312 305 303 304 298 285 272 260 249 242 240 237 241 236 244 253 257 252 255 243 234 227 218 229 232 236 218 223 239 242 247 261 271 244 236 259 266 283
306 306 309 309 308 311 312 312 310 307 307 316 293 272 258 251 242 228 231 237 238 239 246 258 257 243 241 222 239 266 279 245 269 239 250 239 254 252 212 243 265 245 244 256 272
310 310 311 312 315 313 314 313 310 309 315 326 296 186 258 250 244 231 232 226 234 242 240 243 247 224 218 224 217 240 247 238 249 235 245 246 251 262 215 230 260 244 232 261 269
312 314 314 315 316 316 318 317 317 320 338 347 148 94 273 309 240 229 233 231 235 233 237 244 233 202 212 223 234 250 248 250 248 233 245 258 254 292 211 206 245 257 250 238 246
312 312 315 317 318 318 319 319 320 339 327 145 174 163 178 267 237 226 223 225 226 225 230 240 234 209 211 223 221 238 243 245 250 241 259 150 259 14 199 216 259 260 264 269 270
311 312 313 316 319 320 319 319 330 297 232 187 176 168 161 183 285 267 259 237 215 232 238 246 239 223 203 215 219 231 235 245 251 242 199 242 271 305 273 253 264 271 268 263 252
310 312 313 316 320 319 319 319 293 257 212 203 181 174 148 155 222 234 244 238 238 217 238 244 251 233 230 219 218 227 239 233 241 242 241 237 238 251 250 239 237 229 242 272 294
307 308 311 318 320 317 317 290 270 214 225 194 191 183 174 249 217 209 198 217 233 245 226 237 255 239 221 226 237 234 249 223 221 237 237 223 242 255 233 258 251 262 256 260 277
305 306 311 319 317 316 310 282 266 231 204 202 209 211 187 216 233 218 236 211 215 216 223 230 234 245 231 206 217 230 239 240 218 225 228 225 251 255 251 244 247 250 239 254 262
305 310 313 315 312 310 303 291 271 226 215 216 216 211 204 211 214 222 204 215 217 226 231 221 226 238 241 206 213 240 239 248 246 215 221 231 235 244 247 211 228 232 230 228 244
306 310 312 312 304 301 291 281 255 219 221 226 231 230 221 214 216 228 211 213 215 216 216 223 214 237 237 216 213 230 209 235 248 253 222 229 239 264 253 244 239 229 225 235 263
303 311 315 307 300 296 286 268 250 230 233 238 245 249 249 235 225 225 223 193 192 210 173 209 209 223 224 222 218 229 207 213 225 238 239 231 240 259 257 257 263 228 207 217 226
306 313 304 302 293 287 280 268 244 247 235 244 250 257 234 232 227 231 233 213 151 291 203 210 198 211 225 225 218 248 212 219 214 221 234 253 254 253 253 247 268 249 220 192 213
309 301 296 289 280 270 274 270 246 254 253 250 267 264 230 230 227 227 232 230 183 225 228 204 202 209 216 218 214 220 257 210 218 210 229 227 239 243 237 241 251 263 276 193 208
305 295 291 286 266 257 267 249 253 225 234 254 256 266 250 248 236 220 224 232 238 256 212 208 212 216 221 216 216 220 237 224 220 215 228 226 232 250 255 255 263 270 264 258 214
Height
5930 5931 5932 5932 5932 5932 5932 5932 5932 5934 5934 5934 5934 5934 5933 5934 5934 5933 5933 5934 5933 5933 5934 5934 5933 5935 5935 5933 5932 5931 5930 5932 5930 5929 5934 5931 5925 5927 5927 5925 5920 5919 5918 5916 5911
5926 5927 5927 5928 5929 5929 5929 5929 5929 5929 5930 5931 5931 5931 5931 5931 5932 5932 5932 5932 5932 5931 5931 5932 5932 5932 5934 5934 5932 5930 5934 5937 5936 5938 5935 5930 5927 5926 5927 5927 5923 5919 5921 5918 5914
5921 5921 5922 5923 5923 5924 5925 5926 5926 5926 5925 5926 5927 5928 5929 5929 5931 5928 5930 5929 5930 5930 5929 5929 5931 5930 5931 5931 5931 5931 5937 5936 5941 5940 5935 5934 5931 5925 5926 5924 5926 5920 5921 5919 5917
5916 5916 5916 5917 5918 5918 5919 5919 5920 5920 5921 5921 5922 5922 5923 5925 5928 5926 5927 5927 5927 5927 5928 5927 5927 5928 5928 5928 5925 5924 5933 5937 5939 5938 5936 5933 5928 5925 5924 5923 5922 5921 5920 5921 5919
5910 5909 5910 5910 5910 5911 5912 5912 5912 5912 5914 5915 5916 5917 5918 5919 5921 5922 5923 5923 5923 5924 5925 5924 5924 5925 5925 5923 5920 5922 5926 5928 5930 5932 5934 5933 5934 5932 5924 5922 5920 5919 5920 5921 5921
5905 5905 5904 5904 5904 5904 5904 5904 5904 5905 5904 5905 5907 5908 5911 5915 5914 5917 5915 5916 5917 5918 5921 5921 5921 5920 5921 5920 5920 5920 5920 5921 5923 5927 5930 5931 5930 5931 5925 5919 5920 5921 5921 5921 5922
5902 5901 5901 5900 5900 5899 5898 5898 5897 5897 5897 5896 5896 5897 5900 5908 5903 5910 5909 5911 5912 5913 5914 5916 5917 5916 5917 5917 5917 5916 5916 5917 5921 5926 5926 5928 5929 5927 5925 5921 5920 5920 5921 5920 5920
5898 5897 5896 5895 5893 5893 5891 5890 5890 5888 5888 5886 5886 5885 5887 5896 5893 5897 5904 5905 5906 5907 5908 5908 5909 5911 5912 5913 5913 5915 5917 5918 5919 5920 5924 5927 5926 5926 5927 5923 5914 5916 5916 5918 5917
5894 5893 5891 5889 5887 5886 5885 5883 5881 5880 5878 5876 5876 5873 5880 5886 5884 5895 5892 5895 5899 5900 5901 5901 5902 5905 5907 5908 5909 5912 5915 5918 5918 5921 5925 5926 5923 5923 5923 5919 5916 5914 5913 5914 5914
5889 5887 5885 5883 5880 5878 5876 5874 5871 5869 5867 5865 5864 5864 5869 5879 5878 5877 5879 5885 5889 5892 5893 5895 5895 5897 5898 5901 5906 5909 5911 5909 5912 5916 5921 5920 5921 5919 5919 5918 5909 5910 5905 5909 5913
5884 5882 5879 5875 5873 5870 5870 5865 5860 5859 5855 5854 5851 5851 5853 5859 5863 5864 5868 5873 5878 5880 5886 5890 5887 5890 5894 5896 5899 5901 5903 5903 5907 5912 5915 5916 5916 5916 5914 5912 5911 5906 5906 5908 5911
5876 5874 5871 5867 5865 5860 5856 5852 5848 5845 5843 5836 5836 5834 5839 5845 5848 5852 5859 5862 5866 5870 5879 5881 5881 5888 5890 5890 5891 5894 5896 5899 5903 5906 5908 5908 5908 5909 5911 5909 5911 5908 5908 5908 5907
5869 5865 5862 5858 5854 5850 5844 5840 5833 5827 5822 5827 5823 5821 5827 5831 5835 5840 5848 5852 5857 5862 5866 5871 5880 5883 5884 5885 5886 5889 5892 5895 5896 5898 5898 5900 5900 5901 5905 5904 5906 5906 5904 5904 5903
5860 5856 5853 5849 5845 5839 5832 5826 5818 5812 5808 5814 5808 5810 5813 5818 5819 5830 5834 5845 5848 5853 5859 5861 5870 5874 5878 5879 5884 5885 5890 5891 5891 5893 5893 5897 5893 5895 5898 5900 5901 5901 5898 5900 5898
5852 5848 5844 5840 5834 5827 5822 5815 5807 5800 5798 5801 5801 5801 5807 5806 5819 5821 5830 5835 5839 5843 5852 5853 5860 5865 5869 5874 5879 5881 5885 5886 5885 5886 5886 5888 5888 5890 5894 5896 5895 5895 5893 5894 5894
5844 5840 5834 5830 5823 5817 5809 5802 5795 5796 5794 5796 5800 5802 5798 5802 5806 5817 5822 5829 5834 5837 5843 5845 5853 5857 5863 5870 5874 5877 5878 5879 5879 5880 5877 5884 5884 5886 5888 5891 5891 5888 5890 5893 5891
5836 5831 5826 5820 5814 5807 5799 5794 5793 5791 5792 5793 5790 5790 5793 5801 5804 5809 5814 5818 5825 5830 5834 5839 5843 5850 5857 5863 5868 5871 5872 5872 5872 5873 5874 5881 5881 5882 5884 5888 5887 5888 5887 5886 5886
5827 5822 5817 5811 5805 5798 5791 5788 5788 5788 5787 5787 5788 5791 5794 5803 5806 5808 5810 5814 5819 5826 5830 5834 5837 5842 5848 5853 5860 5863 5866 5865 5865 5868 5874 5874 5876 5880 5881 5883 5884 5883 5881 5881 5882
5819 5815 5808 5802 5798 5792 5786 5784 5784 5783 5783 5785 5786 5789 5793 5800 5797 5797 5807 5811 5816 5821 5824 5827 5828 5837 5842 5848 5853 5856 5857 5862 5862 5865 5866 5868 5873 5875 5875 5875 5875 5872 5873 5875 5877
5811 5807 5802 5797 5791 5785 5782 5780 5780 5778 5782 5783 5785 5786 5787 5785 5788 5794 5796 5804 5813 5818 5822 5821 5822 5831 5834 5841 5846 5850 5854 5856 5857 5859 5860 5864 5868 5868 5871 5865 5868 5871 5873 5874 5875
5802 5799 5794 5790 5784 5779 5777 5776 5777 5776 5776 5779 5781 5783 5782 5784 5786 5791 5794 5798 5800 5803 5802 5804 5814 5821 5828 5830 5837 5844 5846 5849 5853 5855 5857 5861 5864 5861 5865 5867 5867 5866 5869 5868 5869
5795 5792 5786 5783 5778 5774 5772 5772 5773 5773 5772 5773 5775 5778 5780 5780 5782 5785 5784 5786 5794 5798 5799 5805 5808 5813 5819 5824 5831 5836 5839 5843 5846 5848 5850 5854 5858 5855 5860 5859 5862 5861 5860 5861 5859
5786 5783 5779 5775 5771 5769 5768 5766 5766 5768 5769 5769 5770 5774 5776 5777 5779 5779 5780 5786 5788 5789 5792 5799 5805 5808 5814 5819 5823 5820 5825 5836 5841 5843 5844 5848 5850 5846 5847 5853 5850 5852 5856 5856 5860
5779 5775 5774 5767 5764 5763 5761 5762 5762 5762 5764 5766 5768 5769 5773 5775 5776 5776 5776 5782 5778 5784 5785 5790 5798 5802 5806 5811 5816 5818 5821 5829 5835 5838 5839 5841 5842 5840 5842 5847 5839 5815 5840 5852 5854
5771 5769 5766 5761 5759 5759 5757 5757 5757 5759 5758 5759 5762 5764 5766 5767 5770 5773 5776 5775 5774 5775 5781 5785 5790 5795 5800 5804 5811 5814 5814 5820 5823 5829 5833 5835 5833 5833 5834 5839 5835 5836 5825 5842 5847
5765 5762 5759 5756 5756 5754 5751 5753 5752 5754 5755 5756 5755 5757 5759 5761 5763 5765 5769 5773 5773 5775 5777 5780 5786 5790 5795 5801 5807 5809 5805 5814 5819 5822 5823 5826 5825 5822 5821 5824 5826 5830 5833 5835 5841
5757 5755 5753 5751 5750 5748 5748 5749 5748 5748 5751 5749 5749 5752 5754 5756 5756 5757 5760 5765 5770 5773 5775 5778 5783 5787 5790 5794 5798 5802 5803 5806 5810 5806 5812 5813 5818 5817 5820 5825 5828 5832 5830 5831 5831